This is the latest recevied weather packets stored in our database for station/object G6UYG-13. If no packets are shown the sender has not sent any weather packets the latest 10 day(s).
| Time | Temp. | Humidity | Pressure | Rain* | Wind** | Luminosity | Snow |
|---|---|---|---|---|---|---|---|
| 1777467904 | 17.78° C | 43% | 1023.2 hPa | 0 mm | - | 752 W/m² | - |
| 1777467484 | 17.78° C | 44% | 1023.3 hPa | 0 mm | - | 759 W/m² | - |
| 1777467065 | 17.78° C | 44% | 1023.4 hPa | 0 mm | - | 766 W/m² | - |
| 1777466645 | 17.78° C | 44% | 1023.4 hPa | 0 mm | - | 770 W/m² | - |
| 1777466225 | 17.78° C | 44% | 1023.5 hPa | 0 mm | - | 768 W/m² | - |
| 1777465805 | 17.78° C | 43% | 1023.4 hPa | 0 mm | - | 780 W/m² | - |
| 1777465385 | 17.22° C | 44% | 1023.5 hPa | 0 mm | - | 779 W/m² | - |
| 1777464965 | 17.22° C | 43% | 1023.4 hPa | 0 mm | - | 784 W/m² | - |
| 1777464545 | 17.22° C | 44% | 1023.5 hPa | 0 mm | - | 784 W/m² | - |
| 1777464125 | 17.22° C | 45% | 1023.5 hPa | 0 mm | - | 780 W/m² | - |
| 1777463705 | 17.22° C | 46% | 1023.5 hPa | 0 mm | - | 784 W/m² | - |
| 1777463285 | 17.22° C | 48% | 1023.7 hPa | 0 mm | - | 782 W/m² | - |
| 1777462865 | 16.67° C | 48% | 1023.8 hPa | 0 mm | - | 779 W/m² | - |
| 1777462445 | 16.67° C | 48% | 1023.7 hPa | 0 mm | - | 772 W/m² | - |
| 1777462025 | 16.67° C | 49% | 1023.7 hPa | 0 mm | - | 773 W/m² | - |
| 1777461605 | 16.67° C | 50% | 1023.9 hPa | 0 mm | - | 765 W/m² | - |
| 1777461185 | 16.11° C | 51% | 1024 hPa | 0 mm | - | 766 W/m² | - |
| 1777460765 | 16.11° C | 50% | 1024.1 hPa | 0 mm | - | 758 W/m² | - |
| 1777460345 | 16.11° C | 51% | 1024.1 hPa | 0 mm | - | 754 W/m² | - |
| 1777459925 | 16.11° C | 51% | 1024.3 hPa | 0 mm | - | 752 W/m² | - |
| 1777459505 | 16.11° C | 53% | 1024.2 hPa | 0 mm | - | 742 W/m² | - |
| 1777459085 | 16.11° C | 52% | 1024.3 hPa | 0 mm | - | 735 W/m² | - |
| 1777458665 | 15.56° C | 55% | 1024.4 hPa | 0 mm | - | 726 W/m² | - |
| 1777458245 | 15.56° C | 53% | 1024.4 hPa | 0 mm | - | 719 W/m² | - |
| 1777457825 | 15.56° C | 56% | 1024.5 hPa | 0 mm | - | 705 W/m² | - |
* Rain latest hour (hover to see other rain measurements)
** Current wind speed in m/s (hover to see current wind gust speed)